Time,TemperatureF,DewpointF,PressureIn,WindDirection,WindDirectionDegrees,WindSpeedMPH,WindSpeedGustMPH,Humidity,HourlyPrecipIn,Conditions,Clouds,dailyrainin,SoftwareType,DateUTC
2013-01-04 00:12:00,44.2,34.0,30.42,NE,53,5.0,8.0,68,0.00,,,0.00,weatherlink.com 1.10,2013-01-04 06:12:00,
2013-01-04 00:27:00,44.1,34.0,30.42,NNE,26,3.0,5.0,69,0.00,,,0.00,weatherlink.com 1.10,2013-01-04 06:27:00,
2013-01-04 00:42:00,44.0,34.0,30.41,NNE,27,7.0,7.0,69,0.00,,,0.00,weatherlink.com 1.10,2013-01-04 06:42:00,
2013-01-04 00:57:00,44.1,34.0,30.41,NE,53,5.0,6.0,69,0.00,,,0.00,weatherlink.com 1.10,2013-01-04 06:57:00,
2013-01-04 01:12:00,44.1,34.0,30.41,NNE,33,4.0,7.0,69,0.00,,,0.00,weatherlink.com 1.10,2013-01-04 07:12:00,
2013-01-04 01:27:00,44.1,34.0,30.42,NE,51,6.0,6.0,69,0.00,,,0.00,weatherlink.com 1.10,2013-01-04 07:27:00,
2013-01-04 01:42:00,44.1,34.0,30.42,NNW,340,4.0,6.0,69,0.00,,,0.00,weatherlink.com 1.10,2013-01-04 07:42:00,
2013-01-04 01:57:00,44.1,34.0,30.42,North,4,3.0,5.0,69,0.00,,,0.00,weatherlink.com 1.10,2013-01-04 07:57:00,
2013-01-04 02:12:00,44.2,35.0,30.41,NNE,26,6.0,8.0,69,0.00,,,0.00,weatherlink.com 1.10,2013-01-04 08:12:00,
2013-01-04 02:27:00,44.3,34.0,30.43,NNE,14,5.0,7.0,68,0.00,,,0.00,weatherlink.com 1.10,2013-01-04 08:27:00,
2013-01-04 02:43:00,44.3,34.0,30.43,North,4,5.0,8.0,68,0.00,,,0.00,weatherlink.com 1.10,2013-01-04 08:43:00,
2013-01-04 03:13:00,44.0,35.0,30.45,North,6,5.0,7.0,70,0.00,,,0.00,weatherlink.com 1.10,2013-01-04 09:13:00,
2013-01-04 03:28:00,43.5,35.0,30.45,NNE,26,5.0,9.0,72,0.00,,,0.00,weatherlink.com 1.10,2013-01-04 09:28:00,
2013-01-04 03:43:00,43.2,35.0,30.46,NNE,32,8.0,8.0,74,0.00,,,0.00,weatherlink.com 1.10,2013-01-04 09:43:00,
2013-01-04 03:58:00,42.9,35.0,30.45,NE,41,5.0,11.0,74,0.00,,,0.00,weatherlink.com 1.10,2013-01-04 09:58:00,
2013-01-04 04:13:00,42.6,36.0,30.45,NNW,339,3.0,9.0,76,0.00,,,0.00,weatherlink.com 1.10,2013-01-04 10:13:00,
2013-01-04 04:28:00,42.2,36.0,30.45,North,6,8.0,8.0,79,0.00,,,0.00,weatherlink.com 1.10,2013-01-04 10:28:00,
2013-01-04 04:43:00,41.7,36.0,30.45,NNE,18,8.0,12.0,81,0.00,,,0.00,weatherlink.com 1.10,2013-01-04 10:43:00,
2013-01-04 04:58:00,41.6,36.0,30.46,NNE,30,9.0,14.0,81,0.00,,,0.00,weatherlink.com 1.10,2013-01-04 10:58:00,
2013-01-04 05:13:00,41.3,36.0,30.46,NE,46,11.0,14.0,82,0.00,,,0.00,weatherlink.com 1.10,2013-01-04 11:13:00,
2013-01-04 05:28:00,41.2,36.0,30.45,ENE,57,9.0,12.0,82,0.00,,,0.00,weatherlink.com 1.10,2013-01-04 11:28:00,
2013-01-04 05:43:00,41.2,36.0,30.46,NNE,30,10.0,11.0,82,0.00,,,0.00,weatherlink.com 1.10,2013-01-04 11:43:00,
2013-01-04 05:58:00,41.0,36.0,30.46,NNE,30,13.0,13.0,83,0.00,,,0.00,weatherlink.com 1.10,2013-01-04 11:58:00,
2013-01-04 06:13:00,40.9,36.0,30.47,NE,51,11.0,15.0,83,0.00,,,0.00,weatherlink.com 1.10,2013-01-04 12:13:00,
2013-01-04 06:28:00,40.7,36.0,30.47,NNE,30,7.0,14.0,84,0.00,,,0.00,weatherlink.com 1.10,2013-01-04 12:28:00,
2013-01-04 06:43:00,40.5,36.0,30.48,NNE,26,10.0,15.0,84,0.00,,,0.00,weatherlink.com 1.10,2013-01-04 12:43:00,
2013-01-04 06:58:00,40.4,36.0,30.48,NNE,28,13.0,17.0,85,0.00,,,0.00,weatherlink.com 1.10,2013-01-04 12:58:00,
2013-01-04 07:13:00,40.3,36.0,30.48,NNE,27,10.0,14.0,85,0.00,,,0.00,weatherlink.com 1.10,2013-01-04 13:13:00,
2013-01-04 07:28:00,40.0,36.0,30.48,NE,46,10.0,15.0,86,0.00,,,0.00,weatherlink.com 1.10,2013-01-04 13:28:00,
2013-01-04 07:43:00,39.9,36.0,30.49,NNE,26,8.0,15.0,87,0.00,,,0.00,weatherlink.com 1.10,2013-01-04 13:43:00,
2013-01-04 07:58:00,39.9,36.0,30.50,NE,39,11.0,17.0,87,0.00,,,0.00,weatherlink.com 1.10,2013-01-04 13:58:00,
2013-01-04 08:13:00,39.9,36.0,30.49,NE,54,10.0,17.0,87,0.00,,,0.00,weatherlink.com 1.10,2013-01-04 14:13:00,
2013-01-04 08:28:00,40.1,37.0,30.50,NE,41,7.0,15.0,87,0.00,,,0.00,weatherlink.com 1.10,2013-01-04 14:28:00,
2013-01-04 08:43:00,40.1,37.0,30.50,NE,49,13.0,17.0,88,0.00,,,0.00,weatherlink.com 1.10,2013-01-04 14:43:00,
2013-01-04 08:58:00,40.1,37.0,30.51,NE,47,12.0,14.0,87,0.00,,,0.00,weatherlink.com 1.10,2013-01-04 14:58:00,
2013-01-04 09:14:00,40.1,37.0,30.52,NNE,29,8.0,13.0,88,0.00,,,0.00,weatherlink.com 1.10,2013-01-04 15:14:00,
2013-01-04 09:29:00,40.0,37.0,30.52,NNE,33,8.0,14.0,90,0.01,,,0.01,weatherlink.com 1.10,2013-01-04 15:29:00,
2013-01-04 09:44:00,40.0,38.0,30.52,NE,51,9.0,14.0,91,0.02,,,0.02,weatherlink.com 1.10,2013-01-04 15:44:00,
2013-01-04 09:59:00,40.1,38.0,30.52,NE,41,8.0,14.0,92,0.02,,,0.02,weatherlink.com 1.10,2013-01-04 15:59:00,
2013-01-04 10:14:00,40.2,38.0,30.52,ENE,67,11.0,13.0,92,0.03,,,0.03,weatherlink.com 1.10,2013-01-04 16:14:00,
2013-01-04 10:29:00,40.6,38.0,30.52,NNE,25,10.0,16.0,91,0.02,,,0.03,weatherlink.com 1.10,2013-01-04 16:29:00,
2013-01-04 10:44:00,40.5,38.0,30.52,ENE,60,8.0,15.0,90,0.01,,,0.03,weatherlink.com 1.10,2013-01-04 16:44:00,
2013-01-04 10:59:00,40.6,38.0,30.52,NNE,23,9.0,15.0,90,0.01,,,0.03,weatherlink.com 1.10,2013-01-04 16:59:00,
2013-01-04 11:14:00,41.1,38.0,30.51,ENE,57,10.0,17.0,89,0.00,,,0.03,weatherlink.com 1.10,2013-01-04 17:14:00,
2013-01-04 11:29:00,41.1,38.0,30.51,NE,50,16.0,18.0,88,0.00,,,0.03,weatherlink.com 1.10,2013-01-04 17:29:00,
2013-01-04 11:44:00,41.2,38.0,30.50,ENE,58,11.0,14.0,87,0.00,,,0.03,weatherlink.com 1.10,2013-01-04 17:44:00,
2013-01-04 12:01:00,41.3,38.0,30.48,NNE,18,7.0,14.0,88,0.00,,,0.03,weatherlink.com 1.10,2013-01-04 18:01:00,
2013-01-04 12:14:00,41.3,38.0,30.48,NE,45,8.0,11.0,89,0.00,,,0.03,weatherlink.com 1.10,2013-01-04 18:14:00,
2013-01-04 12:29:00,41.5,39.0,30.47,NE,44,8.0,11.0,89,0.00,,,0.03,weatherlink.com 1.10,2013-01-04 18:29:00,
2013-01-04 12:44:00,41.3,38.0,30.46,NE,37,9.0,13.0,88,0.00,,,0.03,weatherlink.com 1.10,2013-01-04 18:44:00,
2013-01-04 12:59:00,42.2,39.0,30.45,NE,51,8.0,11.0,88,0.00,,,0.03,weatherlink.com 1.10,2013-01-04 18:59:00,
2013-01-04 13:14:00,42.4,39.0,30.44,North,6,11.0,12.0,86,0.00,,,0.03,weatherlink.com 1.10,2013-01-04 19:14:00,
2013-01-04 13:29:00,42.8,39.0,30.43,NE,41,4.0,11.0,85,0.00,,,0.03,weatherlink.com 1.10,2013-01-04 19:29:00,
2013-01-04 13:44:00,43.1,39.0,30.43,NE,44,6.0,12.0,84,0.00,,,0.03,weatherlink.com 1.10,2013-01-04 19:44:00,
2013-01-04 13:59:00,43.0,39.0,30.42,NE,49,8.0,12.0,84,0.00,,,0.03,weatherlink.com 1.10,2013-01-04 19:59:00,
2013-01-04 14:14:00,43.2,39.0,30.42,NE,46,8.0,10.0,84,0.00,,,0.03,weatherlink.com 1.10,2013-01-04 20:14:00,
2013-01-04 14:29:00,43.5,39.0,30.41,NE,53,7.0,11.0,83,0.00,,,0.03,weatherlink.com 1.10,2013-01-04 20:29:00,
2013-01-04 14:44:00,43.7,38.0,30.40,NE,44,7.0,11.0,81,0.00,,,0.03,weatherlink.com 1.10,2013-01-04 20:44:00,
2013-01-04 14:59:00,44.1,39.0,30.40,NE,43,11.0,12.0,82,0.00,,,0.03,weatherlink.com 1.10,2013-01-04 20:59:00,
2013-01-04 15:14:00,43.9,38.0,30.40,NNW,348,8.0,11.0,81,0.00,,,0.03,weatherlink.com 1.10,2013-01-04 21:14:00,
2013-01-04 15:31:00,44.1,39.0,30.40,NNE,29,6.0,11.0,81,0.00,,,0.03,weatherlink.com 1.10,2013-01-04 21:31:00,
2013-01-04 15:44:00,44.1,38.0,30.41,NNE,26,9.0,10.0,80,0.00,,,0.03,weatherlink.com 1.10,2013-01-04 21:44:00,
2013-01-04 15:59:00,44.1,38.0,30.41,NE,46,4.0,9.0,80,0.00,,,0.03,weatherlink.com 1.10,2013-01-04 21:59:00,
2013-01-04 16:14:00,44.1,38.0,30.40,NE,41,8.0,12.0,80,0.00,,,0.03,weatherlink.com 1.10,2013-01-04 22:14:00,
2013-01-04 16:29:00,44.1,39.0,30.40,NNE,30,6.0,9.0,81,0.00,,,0.03,weatherlink.com 1.10,2013-01-04 22:29:00,
2013-01-04 16:44:00,43.9,38.0,30.41,NE,40,4.0,10.0,81,0.00,,,0.03,weatherlink.com 1.10,2013-01-04 22:44:00,
2013-01-04 16:59:00,43.9,39.0,30.41,NNE,14,5.0,9.0,82,0.00,,,0.03,weatherlink.com 1.10,2013-01-04 22:59:00,
2013-01-04 17:14:00,43.7,39.0,30.41,NE,37,5.0,8.0,82,0.00,,,0.03,weatherlink.com 1.10,2013-01-04 23:14:00,
2013-01-04 17:29:00,43.6,39.0,30.41,NNE,28,4.0,9.0,83,0.00,,,0.03,weatherlink.com 1.10,2013-01-04 23:29:00,
2013-01-04 17:44:00,43.4,39.0,30.40,NE,49,7.0,10.0,83,0.00,,,0.03,weatherlink.com 1.10,2013-01-04 23:44:00,
2013-01-04 17:59:00,43.3,39.0,30.41,North,11,5.0,9.0,84,0.00,,,0.03,weatherlink.com 1.10,2013-01-04 23:59:00,
2013-01-04 18:15:00,43.1,39.0,30.41,NE,41,6.0,9.0,84,0.00,,,0.03,weatherlink.com 1.10,2013-01-05 00:15:00,
2013-01-04 18:29:00,43.1,39.0,30.41,NNE,33,7.0,9.0,85,0.00,,,0.03,weatherlink.com 1.10,2013-01-05 00:29:00,
2013-01-04 18:44:00,43.0,39.0,30.41,NE,47,6.0,10.0,85,0.00,,,0.03,weatherlink.com 1.10,2013-01-05 00:44:00,
2013-01-04 18:59:00,42.9,39.0,30.42,North,10,3.0,7.0,86,0.00,,,0.03,weatherlink.com 1.10,2013-01-05 00:59:00,
2013-01-04 19:29:00,42.7,39.0,30.41,NE,41,3.0,8.0,87,0.00,,,0.03,weatherlink.com 1.10,2013-01-05 01:29:00,
2013-01-04 19:44:00,42.6,39.0,30.42,NNW,348,5.0,8.0,87,0.00,,,0.03,weatherlink.com 1.10,2013-01-05 01:44:00,
2013-01-04 19:59:00,42.4,39.0,30.42,North,6,2.0,8.0,88,0.00,,,0.03,weatherlink.com 1.10,2013-01-05 01:59:00,
2013-01-04 20:14:00,42.3,39.0,30.42,NNE,22,6.0,8.0,89,0.00,,,0.03,weatherlink.com 1.10,2013-01-05 02:14:00,
2013-01-04 20:29:00,42.2,40.0,30.43,NNE,25,4.0,6.0,90,0.00,,,0.03,weatherlink.com 1.10,2013-01-05 02:29:00,
2013-01-04 20:44:00,42.1,39.0,30.43,NNE,20,5.0,7.0,90,0.00,,,0.03,weatherlink.com 1.10,2013-01-05 02:44:00,
2013-01-04 20:59:00,42.1,40.0,30.43,NNE,30,3.0,6.0,91,0.00,,,0.03,weatherlink.com 1.10,2013-01-05 02:59:00,
2013-01-04 21:14:00,42.0,40.0,30.43,NE,34,2.0,4.0,91,0.00,,,0.03,weatherlink.com 1.10,2013-01-05 03:14:00,
2013-01-04 21:29:00,42.0,40.0,30.43,North,10,2.0,4.0,91,0.01,,,0.04,weatherlink.com 1.10,2013-01-05 03:29:00,
2013-01-04 21:44:00,41.9,40.0,30.43,NNW,340,1.0,5.0,92,0.01,,,0.04,weatherlink.com 1.10,2013-01-05 03:44:00,
2013-01-04 21:59:00,41.9,40.0,30.43,NNW,340,1.0,4.0,93,0.01,,,0.04,weatherlink.com 1.10,2013-01-05 03:59:00,
2013-01-04 22:14:00,41.9,40.0,30.43,NNW,338,0.0,2.0,93,0.01,,,0.04,weatherlink.com 1.10,2013-01-05 04:14:00,
2013-01-04 22:29:00,41.9,40.0,30.42,North,4,4.0,4.0,93,0.00,,,0.04,weatherlink.com 1.10,2013-01-05 04:29:00,
2013-01-04 22:44:00,41.9,40.0,30.42,NNE,22,3.0,5.0,93,0.00,,,0.04,weatherlink.com 1.10,2013-01-05 04:44:00,
2013-01-04 22:59:00,41.9,40.0,30.42,NNE,26,4.0,4.0,93,0.00,,,0.04,weatherlink.com 1.10,2013-01-05 04:59:00,
2013-01-04 23:14:00,41.9,40.0,30.41,NNE,26,3.0,4.0,93,0.00,,,0.04,weatherlink.com 1.10,2013-01-05 05:14:00,
2013-01-04 23:29:00,41.9,40.0,30.41,NE,36,3.0,5.0,92,0.00,,,0.04,weatherlink.com 1.10,2013-01-05 05:29:00,
2013-01-04 23:44:00,41.9,40.0,30.41,NNE,20,3.0,4.0,92,0.00,,,0.04,weatherlink.com 1.10,2013-01-05 05:44:00,
2013-01-04 23:59:00,41.9,40.0,30.41,NE,46,3.0,3.0,92,0.00,,,0.04,weatherlink.com 1.10,2013-01-05 05:59:00,